FW1908 Weather Reports


Display with metric or nautical units.
time (UTC)temp
F
wind
direction
speed
MPH
gust
MPH
rain 1hr
in
rain 24hr
in
rain mn
in
humidity
%
barometer
mb
20260506131808 65 252 2.0 4.0 0.00 0.00 0.00 79 1014.6
20260506131302 65 276 1.0 4.0 0.00 0.00 0.00 79 1014.7
20260506131021 65 177 1.0 3.0 0.00 0.00 0.00 79 1014.7
20260506130250 65 184 1.0 4.0 0.00 0.00 0.00 79 1014.9
20260506125743 64 254 1.0 4.0 0.00 0.00 0.00 80 1015.1
20260506125500 64 261 2.0 7.0 0.00 0.00 0.00 80 1015.2
20260506124731 64 247 2.0 7.0 0.00 0.00 0.00 80 1015.1
20260506124226 64 190 2.0 5.0 0.00 0.00 0.00 80 1015.1
20260506123719 64 295 2.0 5.0 0.00 0.00 0.00 81 1014.9
20260506123214 64 267 1.0 3.0 0.00 0.00 0.00 81 1015.1
20260506122707 63 269 1.0 3.0 0.00 0.00 0.00 81 1015.2
20260506122203 63 267 2.0 4.0 0.00 0.00 0.00 81 1015.3
20260506121656 63 275 2.0 4.0 0.00 0.00 0.00 81 1015.6
20260506121413 63 281 2.0 4.0 0.00 0.00 0.00 81 1015.5
20260506120644 63 276 2.0 4.0 0.00 0.00 0.00 82 1015.4
20260506120137 63 269 2.0 4.0 0.00 0.00 0.00 81 1015.4
20260506115854 62 270 1.0 4.0 0.00 0.00 0.00 82 1015.2
20260506115125 62 291 1.0 3.0 0.00 0.00 0.00 81 1015.0
20260506114620 62 291 1.0 3.0 0.00 0.00 0.00 81 1014.9
20260506114113 62 290 1.0 3.0 0.00 0.00 0.00 81 1014.9
20260506113612 62 291 2.0 5.0 0.00 0.00 0.00 81 1014.7
20260506113111 62 186 2.0 5.0 0.00 0.00 0.00 81 1014.5
20260506112609 62 270 2.0 4.0 0.00 0.00 0.00 81 1014.6
20260506112108 62 245 2.0 3.0 0.00 0.00 0.00 81 1014.5
20260506111608 62 250 1.0 3.0 0.00 0.00 0.00 81 1014.4
20260506111108 62 244 2.0 6.0 0.00 0.00 0.00 81 1014.1
20260506110104 62 305 1.0 3.0 0.00 0.00 0.00 80 1014.0
20260506105603 62 306 1.0 8.0 0.00 0.00 0.00 80 1014.0
20260506105104 62 306 2.0 8.0 0.00 0.00 0.00 80 1014.0
20260506104827 62 239 2.0 4.0 0.00 0.00 0.00 80 1014.0
20260506104102 62 279 1.0 3.0 0.00 0.00 0.00 80 1013.9
20260506103600 62 236 2.0 4.0 0.00 0.00 0.00 80 1013.7
20260506103100 62 234 1.0 4.0 0.00 0.00 0.00 79 1013.7
20260506102558 62 244 1.0 3.0 0.00 0.00 0.00 79 1013.6
20260506102058 62 292 1.0 4.0 0.00 0.00 0.00 79 1013.7
20260506101558 62 286 2.0 5.0 0.00 0.00 0.00 78 1013.7
20260506101058 62 218 2.0 5.0 0.00 0.00 0.00 78 1013.7
20260506100552 62 252 2.0 5.0 0.00 0.00 0.00 78 1013.8
20260506100048 62 261 2.0 5.0 0.00 0.00 0.00 78 1013.9
20260506095548 62 288 2.0 5.0 0.00 0.00 0.00 78 1013.9
20260506095048 62 272 2.0 4.0 0.00 0.00 0.00 78 1013.8
20260506094546 62 263 2.0 5.0 0.00 0.00 0.00 78 1013.8
20260506094046 63 254 2.0 6.0 0.00 0.00 0.00 78 1013.9
20260506093546 63 288 1.0 6.0 0.00 0.00 0.00 78 1013.9
20260506093046 63 190 1.0 3.0 0.00 0.00 0.00 77 1014.1
20260506092546 63 227 1.0 3.0 0.00 0.00 0.00 77 1014.3
20260506092313 63 240 1.0 3.0 0.00 0.00 0.00 77 1014.3
20260506091548 63 240 2.0 7.0 0.00 0.00 0.00 77 1014.3
20260506091046 63 240 2.0 7.0 0.00 0.00 0.00 77 1014.4
20260506090046 63 273 2.0 5.0 0.00 0.00 0.00 76 1014.5
20260506085544 64 313 2.0 5.0 0.00 0.00 0.00 76 1014.4
20260506085044 64 271 2.0 4.0 0.00 0.00 0.00 76 1014.4
20260506084543 64 217 2.0 4.0 0.00 0.00 0.00 76 1014.7
20260506084044 64 252 2.0 5.0 0.00 0.00 0.00 76 1014.7
20260506083543 64 256 2.0 5.0 0.00 0.00 0.00 75 1014.7
20260506083043 64 259 2.0 5.0 0.00 0.00 0.00 75 1014.7
20260506082544 64 244 2.0 10.0 0.00 0.00 0.00 75 1014.6
20260506082043 64 161 2.0 10.0 0.00 0.00 0.00 75 1014.7
20260506081543 64 240 1.0 7.0 0.00 0.00 0.00 75 1014.8
20260506081044 64 267 2.0 7.0 0.00 0.00 0.00 75 1014.9
20260506080539 64 289 2.0 7.0 0.00 0.00 0.00 74 1014.9
20260506073039 64 275 2.0 8.0 0.00 0.00 0.00 75 1014.7
20260506072540 64 250 1.0 7.0 0.00 0.00 0.00 74 1014.7
20260506072039 64 301 1.0 6.0 0.00 0.00 0.00 74 1014.7
20260506071539 64 234 1.0 6.0 0.00 0.00 0.00 74 1014.6
20260506071040 64 340 2.0 9.0 0.00 0.00 0.00 74 1014.5
20260506070540 64 234 1.0 9.0 0.00 0.00 0.00 74 1014.4
20260506062024 65 275 1.0 6.0 0.00 0.00 0.00 72 1015.1
20260506061522 65 275 1.0 6.0 0.00 0.00 0.00 72 1015.0
20260506061021 65 73 1.0 6.0 0.00 0.00 0.00 72 1015.2
20260506060520 65 263 1.0 4.0 0.00 0.00 0.00 72 1015.1
20260506051009 66 213 2.0 9.0 0.00 0.00 0.00 69 1015.3
20260506050724 66 252 1.0 7.0 0.00 0.00 0.00 68 1015.4
20260506044955 67 257 2.0 10.0 0.00 0.00 0.00 67 1015.3
20260506044456 67 304 2.0 10.0 0.00 0.00 0.00 67 1015.4
20260506043955 67 304 2.0 8.0 0.00 0.00 0.00 67 1015.4
20260506043453 67 214 2.0 6.0 0.00 0.00 0.00 66 1015.3
20260506042953 67 123 2.0 9.0 0.00 0.00 0.00 66 1015.3
20260506042453 67 231 2.0 10.0 0.00 0.00 0.00 66 1015.3
20260506042215 67 140 2.0 8.0 0.00 0.00 0.00 65 1015.2
20260506041454 68 47 2.0 12.0 0.00 0.00 0.00 65 1015.1
20260506040951 68 227 2.0 12.0 0.00 0.00 0.00 65 1015.1
20260506040449 68 225 1.0 7.0 0.00 0.00 0.00 64 1015.0
20260506035950 68 228 1.0 7.0 0.00 0.00 0.00 64 1015.1
20260506035447 68 161 2.0 8.0 0.00 0.00 0.00 64 1015.1
20260506034946 68 200 1.0 8.0 0.00 0.00 0.00 63 1015.0
20260506034446 68 299 1.0 7.0 0.00 0.00 0.00 63 1015.1
20260506033946 68 164 2.0 9.0 0.00 0.00 0.00 63 1015.2
20260506033446 68 267 1.0 9.0 0.00 0.00 0.00 63 1015.1
20260506032944 68 66 1.0 9.0 0.00 0.00 0.00 63 1015.0
20260506032442 69 67 2.0 9.0 0.00 0.00 0.00 62 1015.0
20260506032204 69 255 1.0 7.0 0.00 0.00 0.00 62 1014.8
20260506031443 69 300 2.0 7.0 0.00 0.00 0.00 61 1014.8
20260506030940 69 203 2.0 7.0 0.00 0.00 0.00 61 1014.9
20260506030438 69 144 2.0 9.0 0.00 0.00 0.00 61 1014.8
20260506025938 69 241 1.0 9.0 0.00 0.00 0.00 61 1014.9
20260506025438 69 211 1.0 8.0 0.00 0.00 0.00 61 1014.7
20260506025157 68 51 1.0 3.0 0.00 0.00 0.00 60 1014.7
20260506024702 68 250 1.0 6.0 0.00 0.00 0.00 60 1014.8
20260506023937 68 26 1.0 6.0 0.00 0.00 0.00 60 1014.9
20260506023437 68 355 1.0 3.0 0.00 0.00 0.00 60 1015.0
20260506022933 67 26 1.0 4.0 0.00 0.00 0.00 60 1014.9
20260506022434 67 284 1.0 4.0 0.00 0.00 0.00 60 1014.9
20260506021933 67 270 0.0 3.0 0.00 0.00 0.00 59 1014.9
20260506021433 67 349 0.0 3.0 0.00 0.00 0.00 58 1015.0
20260506020933 67 238 0.0 1.0 0.00 0.00 0.00 57 1015.0
20260506020433 67 196 0.0 0.0 0.00 0.00 0.00 57 1015.0
20260506020148 68 197 0.0 0.0 0.00 0.00 0.00 56 1014.9
20260506015419 68 198 0.0 0.0 0.00 0.00 0.00 55 1014.9
20260506014913 68 197 0.0 0.0 0.00 0.00 0.00 55 1014.9
20260506014408 69 198 0.0 0.0 0.00 0.00 0.00 54 1014.9
20260506013900 69 197 0.0 1.0 0.00 0.00 0.00 54 1014.8
20260506013355 69 198 0.0 1.0 0.00 0.00 0.00 53 1014.7
20260506012848 70 198 0.0 0.0 0.00 0.00 0.00 52 1014.6
20260506012343 70 198 0.0 0.0 0.00 0.00 0.00 51 1014.7
20260506011836 71 198 0.0 0.0 0.00 0.00 0.00 50 1014.6
20260506011331 71 198 0.0 0.0 0.00 0.00 0.00 49 1014.6
20260506010825 72 198 0.0 0.0 0.00 0.00 0.00 48 1014.5
20260506010541 72 198 0.0 0.0 0.00 0.00 0.00 47 1014.5
20260506005812 73 198 0.0 0.0 0.00 0.00 0.00 47 1014.4
20260506005306 73 198 0.0 0.0 0.00 0.00 0.00 46 1014.3
20260506004801 73 198 0.0 0.0 0.00 0.00 0.00 45 1014.1
20260506004255 74 198 0.0 0.0 0.00 0.00 0.00 44 1014.0
20260506003748 74 198 0.0 0.0 0.00 0.00 0.00 44 1014.0
20260506003243 75 198 0.0 0.0 0.00 0.00 0.00 43 1014.0
20260506002736 75 198 0.0 0.0 0.00 0.00 0.00 42 1014.0
20260506002231 76 198 0.0 0.0 0.00 0.00 0.00 42 1013.9
20260506001725 76 198 0.0 0.0 0.00 0.00 0.00 41 1014.0
20260506001219 76 198 0.0 1.0 0.00 0.00 0.00 41 1013.9
20260506000937 76 197 0.0 6.0 0.00 0.00 0.00 41 1013.9
20260506000207 76 196 1.0 6.0 0.00 0.00 0.00 40 1013.8
20260505235701 76 216 1.0 3.0 0.00 0.00 0.00 40 1013.7
20260505235155 77 257 1.0 4.0 0.00 0.00 0.00 40 1013.8
20260505234649 77 293 1.0 5.0 0.00 0.00 0.00 39 1013.8
20260505234143 77 299 2.0 8.0 0.00 0.00 0.00 39 1013.9
20260505233901 77 233 2.0 8.0 0.00 0.00 0.00 38 1013.9
20260505233137 77 266 2.0 10.0 0.00 0.00 0.00 39 1013.8
20260505232626 78 288 3.0 10.0 0.00 0.00 0.00 38 1013.8
20260505232343 78 257 3.0 8.0 0.00 0.00 0.00 38 1013.8
20260505231613 78 225 3.0 8.0 0.00 0.00 0.00 38 1013.8
20260505231107 78 271 2.0 7.0 0.00 0.00 0.00 38 1013.9
20260505230601 78 215 2.0 7.0 0.00 0.00 0.00 38 1013.7
20260505230320 78 280 2.0 6.0 0.00 0.00 0.00 38 1013.7
20260505225550 78 263 2.0 10.0 0.00 0.00 0.00 38 1013.7
20260505225042 78 290 3.0 10.0 0.00 0.00 0.00 37 1013.7
20260505224537 78 307 2.0 7.0 0.00 0.00 0.00 37 1013.7
20260505224030 78 121 3.0 9.0 0.00 0.00 0.00 37 1013.7
20260505223525 79 271 4.0 9.0 0.00 0.00 0.00 37 1013.8
20260505223018 79 267 3.0 8.0 0.00 0.00 0.00 37 1013.8
20260505222513 79 292 3.0 9.0 0.00 0.00 0.00 38 1013.8
20260505222006 79 242 3.0 9.0 0.00 0.00 0.00 37 1013.9
20260505221502 79 134 4.0 8.0 0.00 0.00 0.00 38 1013.9
20260505220954 79 279 3.0 8.0 0.00 0.00 0.00 37 1014.0
20260505220449 79 247 4.0 11.0 0.00 0.00 0.00 38 1014.0
20260505215944 79 238 4.0 11.0 0.00 0.00 0.00 37 1013.9
20260505215437 79 265 3.0 10.0 0.00 0.00 0.00 37 1014.0
20260505214930 79 225 4.0 8.0 0.00 0.00 0.00 37 1014.1
20260505214425 79 197 4.0 12.0 0.00 0.00 0.00 37 1014.1
20260505213920 79 274 4.0 8.0 0.00 0.00 0.00 36 1014.3
20260505213641 79 290 3.0 8.0 0.00 0.00 0.00 37 1014.3
20260505212906 79 237 2.0 8.0 0.00 0.00 0.00 37 1014.1
20260505212400 79 143 2.0 8.0 0.00 0.00 0.00 37 1014.3
20260505211859 79 269 4.0 13.0 0.00 0.00 0.00 37 1014.3
20260505211359 80 265 4.0 13.0 0.00 0.00 0.00 37 1014.3
20260505210857 80 183 2.0 7.0 0.00 0.00 0.00 37 1014.3
20260505210614 80 259 2.0 7.0 0.00 0.00 0.00 37 1014.3
20260505205855 79 106 3.0 13.0 0.00 0.00 0.00 37 1014.4
20260505205355 79 0 3.0 13.0 0.00 0.00 0.00 37 1014.4
20260505204856 79 238 2.0 8.0 0.00 0.00 0.00 37 1014.4
20260505204356 80 190 2.0 9.0 0.00 0.00 0.00 37 1014.5
20260505203855 80 285 4.0 10.0 0.00 0.00 0.00 37 1014.5
20260505203355 80 265 4.0 10.0 0.00 0.00 0.00 36 1014.6
20260505202854 80 233 4.0 9.0 0.00 0.00 0.00 37 1014.6
20260505202355 80 184 5.0 9.0 0.00 0.00 0.00 35 1014.7
20260505201855 80 282 4.0 9.0 0.00 0.00 0.00 35 1014.6
20260505201355 80 286 5.0 10.0 0.00 0.00 0.00 35 1014.6
20260505200353 81 281 4.0 9.0 0.00 0.00 0.00 34 1014.8
20260505195853 81 162 5.0 9.0 0.00 0.00 0.00 35 1014.9
20260505195353 81 290 3.0 9.0 0.00 0.00 0.00 34 1014.9
20260505194846 81 298 3.0 10.0 0.00 0.00 0.00 36 1015.0
20260505194600 81 309 4.0 10.0 0.00 0.00 0.00 36 1015.0
20260505193834 80 285 3.0 9.0 0.00 0.00 0.00 37 1015.1
20260505193600 81 80 3.0 10.0 0.00 0.00 0.00 36 1015.2
20260505192835 81 271 3.0 10.0 0.00 0.00 0.00 36 1015.3
20260505192559 81 141 3.0 10.0 0.00 0.00 0.00 38 1015.5
20260505191833 81 323 4.0 9.0 0.00 0.00 0.00 36 1015.6
20260505191554 81 232 2.0 9.0 0.00 0.00 0.00 39 1015.6
20260505190832 80 187 2.0 5.0 0.00 0.00 0.00 38 1015.6
20260505190333 80 202 2.0 8.0 0.00 0.00 0.00 38 1015.7
20260505185832 81 281 2.0 8.0 0.00 0.00 0.00 37 1015.7
20260505185554 81 250 2.0 8.0 0.00 0.00 0.00 36 1015.9
20260505184833 81 220 3.0 8.0 0.00 0.00 0.00 38 1015.9
20260505184555 81 234 3.0 8.0 0.00 0.00 0.00 38 1016.1
20260505183833 81 243 3.0 8.0 0.00 0.00 0.00 36 1016.1
20260505183333 82 91 3.0 12.0 0.00 0.00 0.00 38 1016.1
20260505182832 81 319 3.0 12.0 0.00 0.00 0.00 39 1016.1
20260505182332 81 248 3.0 8.0 0.00 0.00 0.00 39 1016.3
20260505181832 80 242 4.0 9.0 0.00 0.00 0.00 39 1016.4
20260505181332 81 274 4.0 11.0 0.00 0.00 0.00 39 1016.4
20260505180833 80 286 3.0 11.0 0.00 0.00 0.00 39 1016.4
20260505180332 80 186 3.0 9.0 0.00 0.00 0.00 38 1016.5
20260505175833 80 282 2.0 9.0 0.00 0.00 0.00 39 1016.5
20260505175332 80 156 2.0 6.0 0.00 0.00 0.00 41 1016.5
20260505174832 80 282 3.0 7.0 0.00 0.00 0.00 39 1016.4
20260505173828 80 283 3.0 7.0 0.00 0.00 0.00 39 1016.5
20260505173329 80 336 3.0 10.0 0.00 0.00 0.00 40 1016.5
20260505172829 80 124 2.0 10.0 0.00 0.00 0.00 39 1016.6
20260505172328 80 61 2.0 6.0 0.00 0.00 0.00 39 1016.5
20260505171828 80 90 3.0 7.0 0.00 0.00 0.00 38 1016.6
20260505171329 80 273 3.0 8.0 0.00 0.00 0.00 39 1016.7
20260505170829 80 231 4.0 11.0 0.00 0.00 0.00 41 1016.6
20260505170329 80 328 5.0 12.0 0.00 0.00 0.00 41 1016.6
20260505170048 80 277 3.0 12.0 0.00 0.00 0.00 38 1016.6
20260505164825 79 217 4.0 12.0 0.00 0.00 0.00 40 1016.8
20260505164325 79 229 5.0 12.0 0.00 0.00 0.00 44 1016.8
20260505163825 78 259 4.0 10.0 0.00 0.00 0.00 41 1017.0
20260505163325 78 202 4.0 8.0 0.00 0.00 0.00 39 1017.1
20260505162826 78 294 4.0 10.0 0.00 0.00 0.00 45 1017.1
20260505162324 78 250 4.0 12.0 0.00 0.00 0.00 43 1017.3
20260505161825 78 285 4.0 12.0 0.00 0.00 0.00 47 1017.3
20260505161543 78 259 3.0 9.0 0.00 0.00 0.00 49 1017.4
20260505160820 77 290 3.0 7.0 0.00 0.00 0.00 47 1017.4
20260505160321 77 275 3.0 10.0 0.00 0.00 0.00 47 1017.5
20260505153314 75 244 2.0 7.0 0.00 0.00 0.00 54 1017.6
20260505152814 74 148 3.0 7.0 0.00 0.00 0.00 54 1017.6
20260505152312 74 280 2.0 6.0 0.00 0.00 0.00 55 1017.7
20260505151812 74 251 2.0 5.0 0.00 0.00 0.00 58 1017.7
20260505151310 73 261 3.0 9.0 0.00 0.00 0.00 60 1017.7
20260505150812 73 292 3.0 9.0 0.00 0.00 0.00 57 1017.7
20260505150305 72 259 3.0 7.0 0.00 0.00 0.00 61 1017.8
20260505140511 67 234 2.0 6.0 0.00 0.00 0.00 72 1017.7